Location: Acton
(51.4942°N, 0.2232°W)
Time: 05:25:43
(UTC+00:00)

Resurs 01 Rocket - Pass Details

Date: 18 September 2020
Orbit: 633 x 645 km, 98.0° (Epoch: 20 October)

Event Time Altitude Azimuth Distance (km) Brightness Sun altitude
Exits shadow 19:19:15 17° 103° (ESE) 1,635 3.1 -11.8°
Maximum altitude 19:21:31 25° 62° (ENE) 1,308 2.8 -12.1°
Drops below altitude 10° 19:25:09 10° 7° (N) 2,054 4.4 -12.7°
Sets 19:27:40 0° 355° (N) 2,967 5.4 -13.0°
